Meteo pe oră la Abakonovo

Astăzi, 5 August, Joi

Timp Temperatura Precipitaţii Vânt Presiune Umiditate
00:00 +15°C° 0 mm 1 m/s 744 mmHg 73%
01:00 +15°C° 0 mm 1 m/s 744 mmHg 75%
02:00 +15°C° 0 mm 1 m/s 744 mmHg 77%
03:00 +14°C° 0.1 mm 1 m/s 744 mmHg 79%
04:00 +14°C° 0.1 mm 1 m/s 743 mmHg 82%
05:00 +14°C° 0.1 mm 2 m/s 743 mmHg 84%
06:00 +14°C° 0.5 mm 1 m/s 743 mmHg 87%
07:00 +14°C° 0.5 mm 1 m/s 743 mmHg 90%
08:00 +14°C° 0.5 mm 1 m/s 743 mmHg 93%
09:00 +14°C° 2.4 mm 2 m/s 743 mmHg 95%
10:00 +14°C° 2.4 mm 2 m/s 743 mmHg 96%
11:00 +13°C° 2.4 mm 3 m/s 742 mmHg 98%
12:00 +14°C° 1.3 mm 3 m/s 742 mmHg 98%
13:00 +14°C° 1.3 mm 3 m/s 742 mmHg 97%
14:00 +14°C° 1.3 mm 3 m/s 742 mmHg 97%
15:00 +15°C° 0.2 mm 2 m/s 741 mmHg 97%
16:00 +16°C° 0.2 mm 2 m/s 741 mmHg 96%
17:00 +16°C° 0.2 mm 2 m/s 741 mmHg 96%
18:00 +15°C° 0 mm 1 m/s 741 mmHg 96%
19:00 +15°C° 0 mm 1 m/s 741 mmHg 97%
20:00 +14°C° 0 mm 1 m/s 741 mmHg 97%
21:00 +14°C° 0 mm 1 m/s 741 mmHg 98%
22:00 +14°C° 0 mm 1 m/s 741 mmHg 98%
23:00 +13°C° 0 mm 1 m/s 741 mmHg 98%

Mâine, 6 August, Vineri

Timp Temperatura Precipitaţii Vânt Presiune Umiditate
00:00 +13°C° 0 mm 1 m/s 741 mmHg 98%
01:00 +13°C° 0 mm 1 m/s 740 mmHg 98%
02:00 +13°C° 0 mm 1 m/s 740 mmHg 98%
03:00 +13°C° 0 mm 1 m/s 740 mmHg 98%
04:00 +13°C° 0 mm 1 m/s 740 mmHg 98%
05:00 +13°C° 0 mm 2 m/s 740 mmHg 98%
06:00 +14°C° 0 mm 2 m/s 740 mmHg 96%
07:00 +15°C° 0 mm 2 m/s 740 mmHg 94%
08:00 +14°C° 0 mm 3 m/s 740 mmHg 92%
09:00 +16°C° 0.1 mm 2 m/s 740 mmHg 91%
10:00 +16°C° 0.1 mm 2 m/s 740 mmHg 91%
11:00 +17°C° 0.1 mm 2 m/s 740 mmHg 90%
12:00 +17°C° 1 mm 3 m/s 739 mmHg 92%
13:00 +17°C° 1 mm 3 m/s 739 mmHg 94%
14:00 +17°C° 1 mm 3 m/s 738 mmHg 96%
15:00 +17°C° 1.6 mm 3 m/s 738 mmHg 96%
16:00 +17°C° 1.6 mm 3 m/s 738 mmHg 97%
17:00 +17°C° 1.6 mm 3 m/s 738 mmHg 98%
18:00 +17°C° 1 mm 3 m/s 737 mmHg 98%
19:00 +17°C° 1 mm 3 m/s 737 mmHg 98%
20:00 +18°C° 1 mm 3 m/s 737 mmHg 98%
21:00 +18°C° 0.3 mm 3 m/s 737 mmHg 98%
22:00 +18°C° 0.3 mm 3 m/s 737 mmHg 98%
23:00 +18°C° 0.3 mm 4 m/s 737 mmHg 98%

Poimâine, 7 August, Sâmbătă

Timp Temperatura Precipitaţii Vânt Presiune Umiditate
00:00 +18°C° 0.3 mm 3 m/s 736 mmHg 98%
01:00 +18°C° 0.3 mm 3 m/s 736 mmHg 98%
02:00 +18°C° 0.3 mm 3 m/s 736 mmHg 98%
03:00 +18°C° 0.1 mm 3 m/s 736 mmHg 98%
04:00 +17°C° 0.1 mm 3 m/s 736 mmHg 98%
05:00 +17°C° 0.1 mm 3 m/s 736 mmHg 98%
06:00 +17°C° 0 mm 2 m/s 736 mmHg 98%
07:00 +18°C° 0 mm 2 m/s 736 mmHg 97%
08:00 +18°C° 0 mm 2 m/s 736 mmHg 97%
09:00 +19°C° 0 mm 2 m/s 736 mmHg 94%
10:00 +20°C° 0 mm 2 m/s 736 mmHg 91%
11:00 +20°C° 0 mm 3 m/s 737 mmHg 88%
12:00 +21°C° 0.1 mm 3 m/s 737 mmHg 79%
13:00 +22°C° 0.1 mm 3 m/s 737 mmHg 70%
14:00 +24°C° 0.1 mm 3 m/s 737 mmHg 62%
15:00 +22°C° 0 mm 3 m/s 737 mmHg 64%
16:00 +22°C° 0 mm 3 m/s 737 mmHg 67%
17:00 +21°C° 0 mm 3 m/s 737 mmHg 69%
18:00 +19°C° 0 mm 3 m/s 738 mmHg 74%
19:00 +18°C° 0 mm 3 m/s 738 mmHg 78%
20:00 +16°C° 0 mm 2 m/s 738 mmHg 83%
21:00 +15°C° 0 mm 2 m/s 739 mmHg 86%
22:00 +15°C° 0 mm 2 m/s 739 mmHg 90%
23:00 +14°C° 0 mm 2 m/s 739 mmHg 93%

8 August, Duminică

Timp Temperatura Precipitaţii Vânt Presiune Umiditate
00:00 +14°C° 0 mm 2 m/s 739 mmHg 92%
01:00 +14°C° 0 mm 2 m/s 739 mmHg 91%
02:00 +15°C° 0 mm 2 m/s 739 mmHg 90%
03:00 +15°C° 0.1 mm 2 m/s 740 mmHg 92%
04:00 +15°C° 0.1 mm 2 m/s 740 mmHg 93%
05:00 +15°C° 0.1 mm 2 m/s 740 mmHg 95%
06:00 +15°C° 0 mm 2 m/s 740 mmHg 94%
07:00 +16°C° 0 mm 2 m/s 741 mmHg 94%
08:00 +16°C° 0 mm 2 m/s 741 mmHg 94%
09:00 +17°C° 0 mm 3 m/s 741 mmHg 85%
10:00 +19°C° 0 mm 3 m/s 742 mmHg 76%
11:00 +20°C° 0 mm 3 m/s 742 mmHg 68%
12:00 +21°C° 0 mm 3 m/s 742 mmHg 65%
13:00 +21°C° 0 mm 3 m/s 743 mmHg 62%
14:00 +22°C° 0 mm 3 m/s 743 mmHg 60%
15:00 +22°C° 0 mm 3 m/s 743 mmHg 58%
16:00 +24°C° 0 mm 2 m/s 743 mmHg 56%
17:00 +24°C° 0 mm 2 m/s 743 mmHg 54%
18:00 +22°C° 0 mm 1 m/s 743 mmHg 62%
19:00 +21°C° 0 mm 1 m/s 744 mmHg 70%
20:00 +19°C° 0 mm 1 m/s 744 mmHg 78%
21:00 +18°C° 0 mm 1 m/s 744 mmHg 79%
22:00 +18°C° 0 mm 1 m/s 744 mmHg 80%
23:00 +16°C° 0 mm 1 m/s 744 mmHg 82%

9 August, Luni

Timp Temperatura Precipitaţii Vânt Presiune Umiditate
00:00 +16°C° 0 mm 2 m/s 744 mmHg 83%
01:00 +16°C° 0 mm 2 m/s 745 mmHg 85%
02:00 +16°C° 0 mm 2 m/s 745 mmHg 87%
03:00 +16°C° 0 mm 2 m/s 745 mmHg 87%
04:00 +15°C° 0 mm 2 m/s 744 mmHg 88%
05:00 +15°C° 0 mm 2 m/s 744 mmHg 88%
06:00 +18°C° 0 mm 2 m/s 744 mmHg 79%
07:00 +20°C° 0 mm 3 m/s 744 mmHg 70%
08:00 +22°C° 0 mm 3 m/s 744 mmHg 61%
09:00 +25°C° 0 mm 3 m/s 744 mmHg 58%
10:00 +26°C° 0 mm 3 m/s 744 mmHg 54%
11:00 +27°C° 0 mm 3 m/s 744 mmHg 51%
12:00 +28°C° 0 mm 4 m/s 744 mmHg 49%
13:00 +29°C° 0 mm 4 m/s 744 mmHg 46%
14:00 +30°C° 0 mm 4 m/s 744 mmHg 44%
15:00 +29°C° 0 mm 4 m/s 744 mmHg 48%
16:00 +28°C° 0 mm 3 m/s 744 mmHg 52%
17:00 +28°C° 0 mm 3 m/s 744 mmHg 56%
18:00 +26°C° 0.2 mm 2 m/s 744 mmHg 66%
19:00 +23°C° 0.2 mm 2 m/s 744 mmHg 76%
20:00 +20°C° 0.2 mm 2 m/s 744 mmHg 85%
21:00 +20°C° 0.7 mm 2 m/s 744 mmHg 89%
22:00 +20°C° 0.7 mm 1 m/s 744 mmHg 93%
23:00 +19°C° 0.7 mm 1 m/s 744 mmHg 97%

10 August, Marţi

Timp Temperatura Precipitaţii Vânt Presiune Umiditate
00:00 +19°C° 0.6 mm 1 m/s 744 mmHg 98%
01:00 +19°C° 0.6 mm 1 m/s 744 mmHg 98%
02:00 +19°C° 0.6 mm 1 m/s 744 mmHg 99%
03:00 +19°C° 0 mm 1 m/s 744 mmHg 99%
04:00 +19°C° 0 mm 1 m/s 744 mmHg 98%
05:00 +19°C° 0 mm 1 m/s 745 mmHg 98%
06:00 +18°C° 0 mm 2 m/s 745 mmHg 96%
07:00 +18°C° 0 mm 2 m/s 745 mmHg 94%
08:00 +19°C° 0 mm 2 m/s 745 mmHg 92%
09:00 +20°C° 0 mm 2 m/s 745 mmHg 87%
10:00 +20°C° 0 mm 2 m/s 746 mmHg 81%
11:00 +21°C° 0 mm 2 m/s 746 mmHg 75%
12:00 +23°C° 0 mm 2 m/s 746 mmHg 71%
13:00 +23°C° 0 mm 1 m/s 746 mmHg 67%
14:00 +24°C° 0 mm 1 m/s 745 mmHg 63%
15:00 +24°C° 0.1 mm 1 m/s 745 mmHg 66%
16:00 +23°C° 0.1 mm 1 m/s 745 mmHg 69%
17:00 +23°C° 0.1 mm 1 m/s 745 mmHg 72%
18:00 +22°C° 0 mm 1 m/s 745 mmHg 73%
19:00 +21°C° 0 mm 1 m/s 745 mmHg 74%
20:00 +20°C° 0 mm 1 m/s 745 mmHg 75%
21:00 +20°C° 0 mm 1 m/s 745 mmHg 76%
22:00 +20°C° 0 mm 1 m/s 745 mmHg 76%
23:00 +20°C° 0 mm 1 m/s 746 mmHg 77%
Arată mai mult

Formular de consimțământ

Meteoprog și furnizorii noștri de servicii pot stoca și accesa date personale, precum cookies, identificatori de dispozitiv sau alte tehnologii similare pe dispozitivul dumneavoastră și procesa astfel de date pentru a personaliza conținutul și reclamele, dar și pentru a oferi caracteristici de social media și pentru a analiza traficul.

  • Stocarea și/sau accesarea informațiilor pe dispozitivul dumneavoastră

    Cookies, identificatori de dispozitiv sau alte informații pot fi stocate sau accesate pe dispozitiv în scopurile indicate mai sus.

  • Reclame și conținut personalizat, evaluarea reclamelor și a conținutului, informații despre audiențe și dezvoltarea produselor

    Reclamele și conținutul pot fi personalizate pe baza unui profil. Pot fi adăugate date suplimentare pentru a personaliza mai bine reclamele și conținutul. Performanța reclamelor și conținutului poate fi măsurată. Pot fi obținute informații despre utilizatorii care au văzut reclamele și conținutul. Aceste date pot fi utilizate pentru a dezvolta sau îmbunătăți experiența utilizatorilor, sistemele și software-ul.

Dând clic pe ‘Sunt de acord’, permiteți utilizarea cookie-urilor menționate, a identificatorilor de dispozitiv, balizelor web sau altor tehnologii similare. Setările pot fi modificate din browser-ul dispozitivului dumneavoastră.

În anumite scopuri, interesele legitime pot prima asupra consimțământului. Puteți citi mai multe informații în acest sens în Politica privind Confidențialitatea Datelor și Cookie.